Weather in Moravsky Krumlov

Czech Republic     49°02′55″N   16°18′45″E
temp.,
°C
wind,
m/s
gust,
m/s
humid.,
%
clouds,
%
prec.,
mm/h
press.,
hPa
HPBL,
m
3 march, wed
wed301:00+3ne11810 0.0 103422
04:00+2nne11830 0.0 103222
07:00+2nnw00840 0.0 103222
10:00+7s11690 0.0 1031281
13:00+10ssw225721 0.0 1029544
16:00+12s235626 0.0 1027358
19:00+7wsw117313 0.0 102722
22:00+6w22704 0.0 102622
4 march, thu
thu401:00+5wnw227349 0.0 102524
04:00+4wsw127743 0.0 102222
07:00+4w227255 0.0 102125
10:00+10w375899 0.0 1019465
13:00+13wnw485199 0.0 1017971
16:00+13w2559100 0.0 1014229
19:00+9w4771100 0.0 1014134
22:00+8w61474100 0.1 1013402
5 march, fri
fri501:00+7wnw51084100 0.2 1014409
04:00+6nnw598296 0.2 1014616
07:00+4nnw487998 0.3 1016461
10:00+5nnw567098 0.1 1018886
13:00+4n468099 0.4 1020654
16:00+2nne4687100 0.9 1021507
19:00+1n496997 1.4 1025505
22:00−1n4106637 0.0 1027415
6 march, sat
sat601:00−1nnw386519 0.0 1029281
04:00−1nnw37670 0.0 1030232
07:00−2nnw48680 0.0 1032411
10:00+2n45420 0.0 10331120
13:00+3n34340 0.0 10331682
16:00+3nne34370 0.0 10321595
19:000nne22510 0.0 103321
22:00−1nne11540 0.0 103321
7 march, sun
sun701:00−2se00570 0.0 103221
04:00−2n00570 0.0 103021
07:00−2s01570 0.0 102921
10:00+2s23400 0.0 1028529
13:00+5ssw23340 0.0 1025893
16:00+5s23365 0.0 1022776
19:00+1s125039 0.0 102222
22:000wnw115488 0.0 102222